Regional Weather Roundup
Issued by NWS

Home | Current Version | Previous Version | Graphics & Text | Print | Product List | Glossary On
Versions: 1 2 3 4 5 6 7 8 9 10 11 12 13 14 15 16 17 18 19 20 21 22 23 24 25 26 27 28 29 30 31 32 33 34 35 36 37 38 39 40 41 42 43 44 45 46 47 48 49 50
000
ASUS43 KLOT 310703
RWRIL

ILLINOIS REGIONAL WEATHER ROUNDUP
NATIONAL WEATHER SERVICE CHICAGO/ROMEOVILLE IL
200 AM CDT SUN JUL 31 2016

NOTE: "FAIR" INDICATES FEW OR NO CLOUDS BELOW 12,000 FEET WITH NO
SIGNIFICANT WEATHER AND/OR OBSTRUCTIONS TO VISIBILITY.

* THESE STATIONS ARE NOT UNDER NWS QUALITY CONTROL. THEY ALSO MAY NOT
  REPORT WEATHER SUCH AS PRECIPITATION OR FOG.

ILZ001-002-007-009-015-016-024-310800-
NORTHWEST ILLINOIS

CITY           SKY/WX    TMP DP  RH WIND       PRES   REMARKS
MOLINE         PTCLDY    69  65  86 E9        30.01S
STERLING*      CLOUDY    65  64  97 CALM      30.03S
SAVANNA*       MOCLDY    64  62  93 CALM      30.03S
$$

ILZ003-004-008-010-011-017-018-310800-
NORTH CENTRAL ILLINOIS

CITY           SKY/WX    TMP DP  RH WIND       PRES   REMARKS
ROCKFORD       CLEAR     63  60  90 CALM      30.05S
FREEPORT*      CLEAR     59  59  98 CALM      30.06R
ROCHELLE*      CLEAR     61  61  98 CALM      30.04S
DE KALB*       CLEAR     63  62  95 N6        30.03F
$$

ILZ005-006-012>014-019>023-310800-
NORTHEAST ILLINOIS

CITY           SKY/WX    TMP DP  RH WIND       PRES   REMARKS
CHICAGO-OHARE  MOCLDY    67  64  90 NW7       30.00S
CHICAGO-MIDWAY PTCLDY    71  65  81 NE5       29.99F
AURORA         CLEAR     63  61  93 CALM      30.02S FOG
LANSING*       CLEAR     67  64  90 CALM      29.99F
WAUKEGAN       MOCLDY    65  63  93 NW3       30.01S
DUPAGE AIRPORT CLEAR     64  60  87 CALM      30.01S
KANKAKEE*      CLEAR     65  64  95 NW3       30.00F
WHEELING       CLEAR     67  63  87 NW6       30.02S
MORRIS*        CLEAR     65  63  94 CALM      29.99F
NORTHERLY ISL    N/A     71  65  81 NE6         N/A
$$

LMZ740>746-310800-
SOUTHERN LAKE MICHIGAN

STATION/POSITION SKY/WX   TEMP    WIND        PRES    VSBY  WAVE
                          AIR SEA DIR/SP/G                  HT/PER
                          (F)     (DEG/KT/KT) (MB)    (MI)  (FT/S)
SOUTHERN BUOY              71 73   90/ 10/ 12 1015.4          2/ 4
WILMETTE HARBOR            72 71  100/  6/ 10   N/A           2/ 4
HARRISON CRIB              73      80/ 10/ 11   N/A
BURNHAM HARBOR             71      60/  5/  8   N/A
CALUMET HARBOR             72      50/  6/  7 1015.3F
BURNS HARBOR               66      60/  3/  5 1016.3S
MICHIGAN CITY              64      40/  5/  6   N/A
MICHIGAN CITY 6N           67 66   70/  4/  6   N/A           2/ 4
ST. JOSEPH                 66 66   10/  4/  4 1015.6F         1/ 4
$$

ILZ025>027-034>036-040-047-049-050-058-095>099-310800-
WEST-CENTRAL ILLINOIS

CITY           SKY/WX    TMP DP  RH WIND       PRES   REMARKS
QUINCY         CLEAR     68  66  93 CALM      30.00F
GALESBURG*     CLEAR     67  66  98 CALM      30.01F
MACOMB*        CLEAR     64  64  97 N5        30.02F
JACKSONVILLE*  CLEAR     67  65  94 CALM      30.00F
PITTSFIELD*    CLEAR     66  66  99 CALM      30.01F
$$

ILZ028>032-037-038-041>044-048-051>054-059>061-310800-
CENTRAL ILLINOIS

CITY           SKY/WX    TMP DP  RH WIND       PRES   REMARKS
PONTIAC        CLEAR     64  64 100 CALM      30.01S FOG
DECATUR        FOG       68  67  96 CALM      29.99F VSB 1/2
PEORIA         PTCLDY    70  67  90 E5        30.01S
LACON*         MOCLDY    66  65  96 CALM      30.01S FOG
LINCOLN*       CLEAR     68  68  99 CALM      30.00S
SPRINGFIELD    CLEAR     68  66  93 NW3       30.00S
TAYLORVILLE    PTCLDY    66  66  99 MISG      30.00S
$$

ILZ033-039-045-046-055>057-062-063-310800-
EAST-CENTRAL ILLINOIS

CITY           SKY/WX    TMP DP  RH WIND       PRES   REMARKS
CHAMPAIGN      CLEAR     68  65  90 N6        30.00S
MATTOON        CLEAR     70  65  84 W5        29.98F
PARIS*         CLEAR     66  66 100 CALM      30.00S
$$

ILZ079-100>102-310800-
SOUTHWEST ILLINOIS

CITY           SKY/WX    TMP DP  RH WIND       PRES   REMARKS
ALTON          CLEAR     67  66  96 CALM      30.00F
BELLEVILLE     CLEAR     73  72  99 CALM      29.98F
CAHOKIA*       MOCLDY    73  69  87 CALM      29.98F
SPARTA*        PTCLDY    71  68  91 NE5       29.99F
$$

ILZ064>066-069>071-074>076-080>082-084>086-088>090-092>094-310800-
SOUTH-CENTRAL ILLINOIS

CITY           SKY/WX    TMP DP  RH WIND       PRES   REMARKS
CARBONDALE     CLEAR     72  70  93 CALM      29.98S
CAIRO*         PTCLDY    71  71 100 CALM      29.97F
EFFINGHAM*     CLEAR     67  67 100 CALM      30.00F
MARION         CLEAR     72  72 100 CALM      29.99S FOG
MT. VERNON     CLEAR     70  64  83 CALM      29.99F
CENTRALIA*     CLOUDY    69  69 100 CALM      29.98F
SALEM*         CLEAR     69  67  94 CALM      29.99S
METROPOLIS*    CLEAR     71  70  98 CALM      29.98F FOG
$$

ILZ067-068-072-073-078-083-087-091-310800-
SOUTHEAST ILLINOIS

CITY           SKY/WX    TMP DP  RH WIND       PRES   REMARKS
LAWRENCEVILLE  CLEAR     69  68  96 CALM      29.99S
FLORA*         PTCLDY    67  66  96 S3        29.99S
FAIRFIELD*     CLEAR     69  69 100 CALM      29.98F
HARRISBURG*    MOCLDY    72  71  99 CALM      29.99S
ROBINSON*      CLEAR     64  64 100 CALM      30.00S FOG
CARMI*         CLEAR     70  70 100 CALM      29.98S FOG
$$

ABBREVIATIONS USED IN REMARKS
   TC - TEMPERATURE IN CELSIUS
  WCI - WIND CHILL INDEX
   HX - HEAT INDEX
  VSB - VISIBILITY
$$





USA.gov is the U.S. government's official web portal to all federal, state and local government web resources and services.